TimeEDT,TemperatureF,Dew PointF,Humidity,Sea Level PressureIn,VisibilityMPH,Wind Direction,Wind SpeedMPH,Gust SpeedMPH,PrecipitationIn,Events,Conditions,WindDirDegrees,DateUTC
12:15 AM,65.3,65.3,100,29.99,5.0,West,3.5,-,N/A,,Overcast,270,2013-09-13 04:15:00
12:35 AM,65.3,65.3,100,29.98,5.0,West,4.6,-,N/A,,Overcast,280,2013-09-13 04:35:00
12:55 AM,65.5,65.5,100,29.98,4.0,West,4.6,-,N/A,,Overcast,270,2013-09-13 04:55:00
1:15 AM,65.7,65.7,100,29.97,2.5,West,5.8,-,N/A,,Overcast,270,2013-09-13 05:15:00
1:35 AM,65.7,65.7,100,29.95,4.0,West,4.6,-,N/A,,Overcast,270,2013-09-13 05:35:00
1:55 AM,65.8,65.8,100,29.95,3.0,West,8.1,-,N/A,,Overcast,270,2013-09-13 05:55:00
2:15 AM,65.8,65.8,100,29.95,1.8,West,4.6,-,N/A,,Overcast,280,2013-09-13 06:15:00
2:35 AM,65.8,65.8,100,29.95,1.8,WNW,8.1,-,N/A,,Overcast,290,2013-09-13 06:35:00
2:55 AM,66.2,66.2,100,29.95,2.5,NW,5.8,-,N/A,,Overcast,320,2013-09-13 06:55:00
3:15 AM,66.2,66.2,100,29.95,3.0,NW,4.6,-,N/A,,Overcast,310,2013-09-13 07:15:00
3:35 AM,66.2,66.2,100,29.95,5.0,WNW,3.5,-,N/A,,Overcast,300,2013-09-13 07:35:00
3:55 AM,66.2,66.2,100,29.94,7.0,West,4.6,-,N/A,,Overcast,270,2013-09-13 07:55:00
4:15 AM,65.8,65.8,100,29.94,7.0,West,3.5,-,N/A,,Overcast,280,2013-09-13 08:15:00
4:35 AM,65.5,65.5,100,29.93,10.0,West,3.5,-,N/A,,Overcast,280,2013-09-13 08:35:00
4:55 AM,65.3,65.3,100,29.94,10.0,Calm,Calm,-,N/A,,Overcast,0,2013-09-13 08:55:00
5:15 AM,65.3,65.3,100,29.94,7.0,West,3.5,-,N/A,,Overcast,280,2013-09-13 09:15:00
5:35 AM,64.8,64.8,100,29.94,7.0,Calm,Calm,-,N/A,,Mostly Cloudy,0,2013-09-13 09:35:00
5:55 AM,64.6,64.6,100,29.94,5.0,Calm,Calm,-,N/A,,Scattered Clouds,0,2013-09-13 09:55:00
6:15 AM,63.9,63.9,100,29.94,3.0,WNW,4.6,-,N/A,,Mostly Cloudy,290,2013-09-13 10:15:00
6:35 AM,63.5,63.5,100,29.95,3.0,NW,3.5,-,N/A,,Scattered Clouds,310,2013-09-13 10:35:00
6:55 AM,64.0,64.0,100,29.95,2.0,Calm,Calm,-,N/A,,Overcast,0,2013-09-13 10:55:00
7:15 AM,63.9,63.9,100,29.95,0.8,Calm,Calm,-,N/A,,Overcast,0,2013-09-13 11:15:00
7:35 AM,63.7,63.7,100,29.95,1.2,West,3.5,-,N/A,,Overcast,280,2013-09-13 11:35:00
7:55 AM,63.9,63.9,100,29.95,2.0,West,4.6,-,N/A,,Mostly Cloudy,260,2013-09-13 11:55:00
8:15 AM,64.4,64.4,100,29.95,3.0,West,4.6,-,N/A,,Scattered Clouds,270,2013-09-13 12:15:00
8:35 AM,64.9,64.9,100,29.95,5.0,WNW,4.6,-,N/A,,Scattered Clouds,290,2013-09-13 12:35:00
8:55 AM,66.2,66.0,99,29.95,10.0,NNW,5.8,-,N/A,,Mostly Cloudy,330,2013-09-13 12:55:00
9:15 AM,66.6,65.5,96,29.95,10.0,NNW,5.8,-,N/A,,Mostly Cloudy,330,2013-09-13 13:15:00
9:35 AM,68.0,64.8,89,29.95,10.0,NNW,5.8,-,N/A,,Mostly Cloudy,330,2013-09-13 13:35:00
9:55 AM,68.9,63.3,82,29.96,10.0,North,6.9,-,N/A,,Scattered Clouds,350,2013-09-13 13:55:00
10:15 AM,69.1,61.3,76,29.96,10.0,NNW,5.8,-,N/A,,Mostly Cloudy,340,2013-09-13 14:15:00
10:35 AM,69.4,61.0,74,29.97,10.0,NNW,8.1,-,N/A,,Mostly Cloudy,340,2013-09-13 14:35:00
10:55 AM,69.4,58.1,67,29.96,10.0,North,11.5,18.4,N/A,,Mostly Cloudy,350,2013-09-13 14:55:00
11:15 AM,70.0,57.9,65,29.97,10.0,North,9.2,-,N/A,,Scattered Clouds,350,2013-09-13 15:15:00
11:35 AM,70.2,58.1,65,29.97,10.0,NNW,13.8,20.7,N/A,,Scattered Clouds,340,2013-09-13 15:35:00
11:55 AM,70.3,57.4,63,29.97,10.0,North,10.4,16.1,N/A,,Scattered Clouds,360,2013-09-13 15:55:00
12:15 PM,70.2,55.6,60,29.97,10.0,NNW,10.4,17.3,N/A,,Scattered Clouds,340,2013-09-13 16:15:00
12:35 PM,70.7,55.6,59,29.97,10.0,North,4.6,-,N/A,,Clear,360,2013-09-13 16:35:00
12:55 PM,71.1,56.8,61,29.97,10.0,NNW,6.9,-,N/A,,Scattered Clouds,340,2013-09-13 16:55:00
1:15 PM,70.9,55.0,57,29.97,10.0,North,5.8,17.3,N/A,,Scattered Clouds,10,2013-09-13 17:15:00
1:35 PM,71.6,55.8,57,29.97,10.0,NNW,10.4,16.1,N/A,,Mostly Cloudy,340,2013-09-13 17:35:00
1:55 PM,71.4,54.5,55,29.96,10.0,NNW,13.8,19.6,N/A,,Scattered Clouds,340,2013-09-13 17:55:00
2:15 PM,71.4,53.1,52,29.96,10.0,North,5.8,16.1,N/A,,Clear,10,2013-09-13 18:15:00
2:35 PM,71.1,51.8,50,29.95,10.0,North,11.5,16.1,N/A,,Scattered Clouds,350,2013-09-13 18:35:00
2:55 PM,71.6,52.3,51,29.95,10.0,NW,10.4,-,N/A,,Clear,320,2013-09-13 18:55:00
3:15 PM,71.4,53.8,54,29.95,10.0,NW,9.2,-,N/A,,Scattered Clouds,320,2013-09-13 19:15:00
3:35 PM,71.8,51.8,49,29.95,10.0,North,6.9,16.1,N/A,,Scattered Clouds,360,2013-09-13 19:35:00
3:55 PM,71.6,52.0,50,29.95,10.0,North,6.9,-,N/A,,Scattered Clouds,10,2013-09-13 19:55:00
4:15 PM,70.7,52.3,52,29.95,10.0,North,6.9,-,N/A,,Scattered Clouds,360,2013-09-13 20:15:00
4:35 PM,71.6,52.5,51,29.95,10.0,NNW,6.9,-,N/A,,Scattered Clouds,330,2013-09-13 20:35:00
4:55 PM,70.9,51.3,50,29.95,10.0,North,8.1,-,N/A,,Scattered Clouds,350,2013-09-13 20:55:00
5:15 PM,70.3,52.0,52,29.95,10.0,North,8.1,-,N/A,,Clear,350,2013-09-13 21:15:00
5:35 PM,68.7,51.1,53,29.96,10.0,North,4.6,-,N/A,,Clear,10,2013-09-13 21:35:00
5:55 PM,68.9,51.6,54,29.96,10.0,NNW,5.8,-,N/A,,Clear,340,2013-09-13 21:55:00
6:15 PM,68.2,52.7,58,29.96,10.0,North,5.8,-,N/A,,Mostly Cloudy,350,2013-09-13 22:15:00
6:35 PM,68.5,51.6,55,29.96,10.0,North,3.5,-,N/A,,Scattered Clouds,360,2013-09-13 22:35:00
6:55 PM,67.3,51.6,57,29.96,10.0,North,3.5,-,N/A,,Clear,350,2013-09-13 22:55:00
7:15 PM,66.2,51.4,59,29.97,10.0,North,4.6,-,N/A,,Clear,360,2013-09-13 23:15:00
7:35 PM,64.4,52.2,64,29.98,10.0,North,3.5,-,N/A,,Clear,10,2013-09-13 23:35:00
7:55 PM,63.5,51.8,66,29.99,10.0,North,3.5,-,N/A,,Clear,360,2013-09-13 23:55:00
8:15 PM,62.6,52.2,69,29.99,10.0,North,3.5,-,N/A,,Clear,10,2013-09-14 00:15:00
8:35 PM,61.7,52.3,71,29.99,10.0,North,3.5,-,N/A,,Clear,360,2013-09-14 00:35:00
8:55 PM,61.0,52.3,73,30.00,10.0,North,4.6,-,N/A,,Clear,10,2013-09-14 00:55:00
9:15 PM,60.8,52.5,74,30.01,10.0,North,4.6,-,N/A,,Clear,360,2013-09-14 01:15:00
9:35 PM,60.1,52.7,77,30.02,10.0,North,3.5,-,N/A,,Clear,360,2013-09-14 01:35:00
9:55 PM,59.7,52.7,78,30.02,10.0,Calm,Calm,-,N/A,,Clear,0,2013-09-14 01:55:00
10:15 PM,59.4,52.7,79,30.02,10.0,NNE,4.6,-,N/A,,Clear,30,2013-09-14 02:15:00
10:35 PM,59.0,52.3,79,30.02,10.0,NE,5.8,-,N/A,,Clear,40,2013-09-14 02:35:00
10:55 PM,58.3,52.7,82,30.03,10.0,ENE,5.8,-,N/A,,Clear,60,2013-09-14 02:55:00
11:15 PM,57.7,52.7,83,30.03,10.0,ENE,6.9,-,N/A,,Clear,70,2013-09-14 03:15:00
11:35 PM,56.8,51.1,81,30.03,10.0,East,6.9,-,N/A,,Clear,80,2013-09-14 03:35:00
11:55 PM,56.1,50.9,83,30.03,10.0,East,5.8,-,N/A,,Clear,90,2013-09-14 03:55:00